Wind_Speed
26 26 27 27 29 28 27 27 27 27 29 28 28 29 28 22 14 10 11 11 15 23 25 21 19 22 24 23 22 21 21 22 23 24 26 26 25 26 28 30 31 31 31 30 30 29 28 28 27 26 26 25 25 25 26 26 26 27 28 28 29 29 29 29 28 28 27 26 26 25 25 26 25 26
24 25 26 27 28 29 29 30 30 29 29 30 30 29 30 29 22 15 12 12 15 22 26 25 19 18 22 23 21 21 20 21 22 23 25 25 25 25 26 29 30 30 31 31 30 29 28 28 27 26 25 25 25 26 27 27 27 27 28 28 29 29 29 29 29 28 27 26 26 25 26 27 27 27
23 24 24 25 25 26 27 29 30 31 30 30 31 31 30 31 30 26 18 13 17 24 26 25 21 17 18 21 20 20 20 20 22 24 24 23 24 24 25 28 30 30 30 31 30 29 28 28 27 26 25 26 26 27 27 28 28 28 28 28 29 29 29 29 29 28 27 26 26 25 26 26 26 27
22 23 23 24 24 23 24 26 27 28 30 30 31 32 32 31 32 32 26 15 16 25 27 25 23 20 19 21 21 21 19 19 21 24 24 22 22 24 25 27 30 30 30 31 31 30 29 28 27 26 26 26 27 27 28 28 28 28 28 28 28 28 28 28 28 28 27 26 27 26 26 26 27 27
23 24 25 26 26 25 25 27 27 28 29 31 32 32 33 33 31 32 29 20 17 23 28 28 26 24 21 23 25 23 19 18 20 22 23 23 21 22 24 24 27 30 31 30 30 30 29 28 28 27 26 27 27 28 28 28 28 28 28 28 28 28 28 28 27 28 27 26 26 26 26 27 28 28
26 27 27 28 28 26 27 28 28 28 28 29 31 33 33 34 33 32 30 26 19 19 24 28 29 27 26 27 29 25 21 19 19 20 22 23 22 22 22 22 23 26 30 30 29 29 28 28 27 27 27 27 27 28 28 28 27 27 28 28 28 28 28 28 28 27 27 27 26 26 26 27 28 28
28 27 27 28 27 25 25 27 27 27 27 27 29 32 34 35 35 34 33 29 24 21 22 26 28 28 28 29 30 27 22 20 20 20 21 22 22 22 22 23 23 23 27 30 30 28 28 28 28 28 28 27 27 27 27 27 27 27 27 28 28 28 28 28 28 28 28 27 27 26 27 27 28 28
27 27 27 28 27 26 26 28 27 26 26 27 27 30 32 34 36 36 35 34 30 26 24 25 27 28 28 28 29 27 23 20 20 20 20 20 22 23 23 24 24 23 23 27 30 28 27 28 28 28 28 28 27 27 27 27 27 27 27 28 28 28 28 28 28 28 28 28 28 28 28 28 29 29
27 27 28 29 27 27 27 28 27 27 27 28 29 30 29 31 34 35 35 36 34 30 27 26 26 26 27 27 28 28 24 20 19 19 20 20 21 22 23 24 24 23 22 24 27 28 29 30 30 29 29 28 27 27 27 27 27 27 28 28 28 28 28 29 29 29 29 29 28 28 28 28 29 29
28 28 29 30 29 28 28 29 28 27 28 29 30 31 30 28 29 31 33 34 33 31 30 29 27 26 26 27 27 28 26 21 18 18 19 21 21 21 23 23 23 22 23 24 25 26 27 29 30 30 29 28 28 28 29 29 29 29 29 29 29 29 29 29 29 29 29 29 29 28 29 29 29 30
29 30 30 30 29 28 28 29 29 28 28 28 29 31 31 30 29 28 30 32 32 31 30 30 29 27 26 26 27 27 26 23 21 19 17 18 19 21 23 23 22 21 21 24 26 27 27 26 27 28 28 28 28 28 29 29 29 29 29 29 29 29 29 29 30 30 29 29 29 29 29 29 29 29
31 31 31 31 30 30 30 30 30 29 28 27 28 29 30 32 32 30 28 28 29 31 31 30 29 28 26 26 27 27 25 24 23 20 18 18 18 19 21 22 22 20 19 19 22 25 27 26 26 26 27 28 29 30 30 30 30 30 29 29 29 29 30 30 29 29 29 29 29 29 29 29 29 29
33 33 33 33 33 34 34 35 35 35 34 33 32 32 31 31 32 32 30 28 28 28 28 28 27 25 25 25 26 26 26 26 22 18 18 20 19 18 18 19 21 22 19 17 18 20 21 21 23 23 24 25 25 26 28 29 30 31 31 32 31 30 30 29 29 28 28 29 29 29 28 28 28 29
34 34 34 35 36 37 38 39 40 41 41 40 40 39 37 35 33 33 33 31 29 27 25 27 25 20 20 25 26 25 27 27 22 18 19 20 19 17 17 16 18 20 19 17 18 18 18 19 20 21 22 22 21 21 24 25 27 28 28 28 28 27 27 27 27 27 27 27 27 27 27 28 28 29
33 32 32 33 33 34 36 38 39 41 43 43 43 44 43 42 40 38 37 34 30 28 26 27 26 21 20 24 25 24 25 26 22 20 20 19 17 17 14 11 13 16 17 17 18 19 18 18 20 21 21 20 20 21 22 22 23 24 23 23 23 23 24 24 24 25 25 25 26 26 26 27 28 28
32 30 30 29 28 28 32 35 35 36 39 41 42 43 43 44 44 44 44 41 36 32 28 26 26 25 23 23 24 24 25 25 22 20 21 19 18 17 15 12 12 13 15 16 18 18 16 16 18 19 19 19 20 21 22 21 21 21 21 21 21 21 22 22 23 23 24 24 25 25 26 27 28 29
30 28 28 27 27 26 30 33 32 33 35 37 38 40 41 42 43 45 47 48 46 41 35 30 28 27 25 23 25 27 27 24 20 18 19 20 18 18 17 16 14 13 13 14 15 15 14 14 16 18 18 19 20 20 20 21 21 21 20 20 20 21 21 21 21 22 23 24 24 25 26 27 28 28
32 31 28 27 28 28 28 30 31 32 34 34 34 35 36 36 38 40 43 47 49 48 43 38 34 32 30 26 27 30 33 30 24 19 19 20 19 19 17 15 14 13 13 14 14 12 13 14 17 18 17 16 17 17 17 19 19 18 18 18 18 19 19 19 20 21 21 22 24 25 26 27 28 28
36 35 30 27 28 29 29 30 32 33 33 33 33 33 34 34 35 35 36 38 42 43 41 41 41 38 35 32 32 35 37 36 32 27 23 20 17 15 12 12 14 14 15 16 15 12 12 14 15 16 15 15 15 16 16 17 17 17 16 17 17 17 18 18 19 20 21 22 23 25 26 27 28 28
41 40 35 31 29 28 28 31 35 38 36 34 33 33 34 35 35 36 36 36 37 39 39 40 42 42 40 40 40 38 36 36 33 27 20 16 14 12 11 13 15 16 16 18 18 15 14 14 14 14 14 13 14 14 13 14 15 15 15 15 16 16 17 18 19 19 20 21 22 23 25 25 26 26
40 41 41 41 38 33 32 32 36 42 41 36 34 33 33 33 33 33 34 34 35 39 41 41 41 41 40 41 40 34 31 32 31 24 16 15 16 14 10 10 13 15 16 18 19 17 15 13 13 13 13 12 13 12 12 12 13 13 14 14 15 16 17 17 18 18 18 19 20 21 22 23 23 23
37 39 41 42 40 38 37 37 39 42 42 36 32 32 32 32 32 31 31 30 30 33 36 37 38 38 37 37 34 29 26 26 27 26 20 17 18 16 11 9 10 12 15 18 19 17 14 13 12 12 11 11 13 13 12 11 10 10 11 12 12 14 16 16 16 16 16 17 18 18 19 19 19 19
39 39 36 35 35 37 38 39 39 40 40 36 32 30 29 29 29 29 28 28 27 26 27 28 31 32 31 30 27 24 24 23 24 26 24 19 17 17 14 12 10 8 10 17 21 17 13 13 12 10 8 7 9 12 13 12 10 7 7 8 9 11 14 15 16 17 17 16 17 17 17 17 17 18
35 32 26 24 27 33 36 38 39 39 38 34 30 29 28 27 27 27 27 27 25 22 22 24 26 24 22 24 23 21 22 23 23 25 26 21 18 18 16 14 12 9 8 16 22 18 12 12 12 9 8 6 4 7 11 12 10 7 4 4 4 6 9 11 13 14 14 15 15 16 15 16 17 18
26 22 20 19 22 27 31 34 35 34 34 33 29 29 29 29 29 27 25 24 22 21 22 24 24 23 22 22 22 20 20 21 23 27 28 25 20 19 17 15 14 12 9 13 22 21 13 10 11 8 7 8 5 3 6 9 8 6 4 3 3 4 5 6 7 9 9 10 11 12 12 13 15 17
25 20 20 21 23 25 28 30 29 27 27 28 27 28 31 33 34 31 26 22 20 21 23 20 17 17 20 21 20 20 20 19 21 27 31 28 23 21 19 14 14 14 10 11 22 23 13 9 9 7 6 6 5 4 5 6 5 3 2 2 3 3 3 4 6 6 6 7 8 10 11 12 13 14
28 23 23 23 24 26 27 28 26 22 22 24 25 28 31 33 33 32 27 21 18 18 20 18 13 11 13 15 17 20 20 19 20 25 29 28 22 21 20 16 15 12 8 12 23 22 10 6 7 6 5 4 4 4 4 4 3 1 2 2 2 1 2 4 5 5 5 6 6 7 8 9 10 10
28 27 26 25 25 26 27 25 22 21 22 24 25 28 31 33 34 31 24 17 15 15 16 16 14 12 11 12 16 19 21 20 21 24 27 25 21 20 20 20 19 14 8 13 22 18 8 6 6 4 4 4 3 3 3 2 1 2 3 3 2 1 2 3 3 3 4 4 4 4 4 4 5 6
28 27 26 25 24 24 21 18 17 18 20 21 25 30 33 31 27 23 18 16 15 15 16 16 16 16 16 15 17 19 20 20 20 21 24 24 22 21 19 19 20 18 12 12 15 14 10 7 5 4 5 5 4 3 2 1 2 2 3 4 4 3 3 3 2 2 3 3 3 4 4 4 5 5
29 26 24 22 21 19 14 10 11 14 16 20 25 25 18 13 14 18 18 17 16 16 16 17 17 17 18 18 17 17 16 17 19 21 23 23 20 19 17 14 15 18 17 13 11 11 10 8 6 5 5 5 4 4 3 2 3 3 3 4 5 3 3 4 3 3 3 4 4 4 4 5 5 5
28 24 22 20 17 13 10 8 10 13 15 18 17 7 11 17 17 17 17 18 18 17 15 16 15 14 14 16 16 16 14 15 18 21 22 19 16 13 13 12 10 12 16 16 12 10 10 8 7 7 7 5 4 4 3 3 4 4 4 4 3 3 3 4 4 3 3 3 4 4 5 6 6 6
26 20 18 14 8 6 6 7 9 11 10 9 8 4 14 17 16 17 17 15 14 14 13 13 12 11 12 13 15 16 15 15 19 22 20 17 15 13 12 12 11 10 11 12 12 10 10 10 9 8 8 6 4 3 2 3 4 4 4 4 3 2 2 3 4 2 2 3 3 4 5 6 7 7
21 19 15 9 4 4 5 5 6 7 5 6 7 5 12 15 16 17 15 13 13 13 12 12 12 11 12 14 15 16 16 15 17 21 20 16 15 15 13 12 12 12 11 11 11 10 11 13 12 10 9 8 8 6 3 3 4 4 3 3 3 2 1 2 2 1 2 3 3 4 5 6 7 8
19 20 19 16 14 11 7 6 7 6 5 5 6 4 9 12 13 13 13 13 13 12 12 12 12 11 12 14 16 17 16 13 12 16 19 17 15 15 14 13 13 12 12 12 11 9 11 13 12 10 9 9 9 9 8 7 5 3 3 3 3 3 1 1 1 1 2 2 3 4 5 7 9 10
20 20 18 18 20 19 15 15 13 10 6 5 4 3 6 10 10 10 10 11 11 11 11 11 11 11 13 15 16 18 18 14 10 12 15 16 15 15 15 15 14 12 13 13 11 9 10 11 9 7 6 6 6 7 10 11 9 4 2 2 3 3 2 1 1 1 2 2 3 4 5 7 9 10
21 21 19 18 20 20 19 19 19 18 15 11 7 4 3 7 9 8 9 10 11 11 11 11 11 12 14 15 15 17 18 16 12 10 11 13 15 15 15 16 14 12 12 13 10 9 9 10 10 8 5 4 4 4 5 9 11 7 3 2 3 3 2 1 1 3 4 4 4 5 5 6 8 10
21 21 20 20 20 19 19 20 20 20 20 19 15 11 6 1 6 9 10 10 10 10 11 11 12 12 13 14 14 16 17 16 14 12 10 12 14 15 15 15 14 13 12 11 9 8 9 10 12 11 7 4 4 4 4 4 8 10 8 4 3 2 1 1 2 4 4 4 3 4 4 4 7 9
22 21 21 20 20 19 19 20 20 20 20 21 19 15 12 7 0 6 9 9 9 10 10 11 11 12 13 13 13 15 16 15 14 13 12 12 14 15 15 14 13 13 11 9 8 9 11 12 13 13 9 5 4 5 5 4 5 9 11 7 3 2 1 1 2 3 3 3 2 2 3 3 5 7
22 21 21 20 20 19 19 18 19 19 19 20 20 18 15 11 6 2 7 8 8 9 10 11 11 12 13 13 12 13 15 15 14 13 14 14 15 15 15 14 13 12 10 9 9 11 13 14 14 13 11 7 4 5 7 7 6 8 11 10 6 2 1 2 2 2 2 3 1 1 2 3 4 4
21 20 20 20 20 20 19 18 18 18 18 20 22 22 19 15 10 5 4 8 8 9 10 10 11 12 12 12 12 12 13 15 14 14 15 15 15 15 15 14 13 12 11 10 10 12 14 14 13 12 11 7 3 6 9 9 8 8 9 10 8 5 1 2 3 2 3 4 3 1 2 3 1 2
20 20 20 20 21 21 21 21 20 20 20 20 23 27 24 17 13 11 7 6 8 9 9 9 10 11 11 11 12 12 13 14 15 16 16 15 15 16 16 15 14 13 11 10 10 12 14 13 12 12 11 7 6 8 9 7 6 6 6 7 9 8 5 3 4 4 3 5 5 3 1 1 1 2
20 20 19 20 21 22 23 23 22 22 21 20 23 28 27 21 17 16 10 6 9 7 8 9 10 10 10 11 12 12 13 13 14 15 15 15 15 16 16 15 13 12 11 10 11 13 13 12 12 13 11 8 8 7 5 5 5 5 5 5 8 9 7 5 4 5 5 6 6 4 3 2 1 2
21 21 20 21 21 22 23 24 24 23 22 22 23 26 26 22 21 21 13 4 8 8 7 8 9 9 9 10 11 11 12 11 11 12 13 13 13 14 13 11 11 11 11 10 10 11 12 12 12 11 9 8 8 7 5 6 6 6 5 6 7 9 9 5 4 5 6 6 6 5 4 3 2 3
21 21 22 22 22 22 23 23 24 23 23 23 22 23 23 22 23 25 21 10 0 6 8 9 9 9 9 9 9 9 9 10 10 11 11 10 11 11 10 9 9 9 9 9 9 10 11 11 11 11 10 9 9 8 8 8 7 6 6 7 7 9 10 6 3 4 6 7 7 6 5 6 7 8
21 22 22 22 22 22 23 24 24 24 24 23 22 22 23 23 24 25 24 20 12 4 5 8 8 7 7 8 8 8 8 8 9 9 8 8 9 9 8 8 8 8 8 9 10 10 10 10 11 11 10 9 9 9 10 9 8 7 6 5 5 7 8 6 4 4 5 8 10 10 9 10 11 11
Wind_Direction
277 275 273 271 270 269 269 268 267 267 267 265 264 262 258 257 259 260 257 254 256 257 254 250 240 228 224 226 229 230 234 238 237 238 244 243 239 239 236 233 233 235 237 239 239 240 242 245 246 247 250 253 256 259 261 262 263 263 263 263 262 263 263 263 264 264 265 266 266 267 267 268 268 269
280 277 274 272 270 269 268 267 266 266 266 265 263 263 260 257 256 255 258 256 254 257 257 253 248 236 226 222 222 226 230 235 235 236 241 242 239 237 233 230 230 232 235 237 238 240 242 243 244 247 250 254 258 261 262 263 263 263 263 263 262 262 262 262 262 263 263 264 264 264 264 264 265 266
279 277 275 273 272 271 270 269 266 264 264 263 263 263 261 259 256 254 255 258 253 253 255 255 253 248 236 226 220 222 227 230 232 237 240 240 239 236 230 229 232 233 233 235 237 239 241 241 243 247 252 257 260 262 263 263 264 264 264 263 262 262 262 262 262 262 263 263 263 264 264 264 264 264
278 277 277 276 274 276 276 273 271 267 265 264 263 262 261 259 257 254 253 257 254 250 251 256 257 253 247 241 232 224 223 224 228 236 241 239 237 234 229 233 237 235 232 233 236 237 237 238 242 248 255 260 262 262 263 263 263 264 265 264 263 262 263 263 262 262 263 263 262 262 263 263 263 264
279 278 278 278 277 277 277 274 272 270 268 265 262 260 261 260 257 255 253 255 256 251 249 251 255 254 252 250 243 231 222 221 223 230 237 237 234 231 230 234 237 234 231 231 232 233 235 236 242 249 256 260 262 263 264 264 264 264 265 264 263 263 264 263 262 262 262 262 262 262 262 263 263 264
281 281 279 278 278 277 275 272 270 268 266 264 261 259 258 259 258 256 255 254 255 254 249 245 248 252 251 250 248 238 224 222 222 223 227 229 229 230 232 234 234 233 231 229 229 230 232 237 243 251 256 259 261 263 264 264 264 264 264 264 263 263 263 263 263 263 262 262 262 262 262 262 262 263
281 281 279 279 280 279 276 273 270 268 265 263 261 259 256 257 257 256 256 256 256 257 252 244 243 246 247 247 249 245 231 222 222 224 224 224 226 228 231 233 234 232 229 227 229 230 233 240 248 252 255 257 259 261 263 263 264 264 263 263 262 262 262 263 262 262 262 261 261 262 262 261 262 264
279 279 279 279 280 281 278 275 272 270 268 266 264 260 255 253 254 255 255 256 256 256 255 249 242 240 242 246 249 246 235 222 220 224 226 225 227 229 230 231 232 233 229 226 229 233 238 245 251 253 254 256 258 260 261 262 262 262 262 262 262 262 262 262 262 261 261 261 261 261 262 262 263 264
276 276 276 277 279 279 277 274 272 271 272 271 267 265 261 256 254 252 252 252 253 252 252 253 246 237 237 244 246 242 234 224 218 221 227 230 230 231 232 231 232 233 230 227 230 237 243 248 251 252 253 255 257 259 259 259 260 260 260 260 261 261 261 261 261 260 260 260 260 260 261 262 262 263
273 273 274 275 277 277 274 272 271 272 274 272 269 270 273 271 264 258 253 250 248 248 250 251 248 241 236 236 239 238 233 226 218 218 227 232 231 231 234 233 229 228 228 229 234 240 244 248 249 250 252 254 256 258 258 258 258 258 258 258 259 259 259 259 259 259 259 259 259 260 260 261 262 262
272 272 273 274 273 273 272 270 269 270 272 272 269 270 274 278 277 271 263 255 249 247 248 247 246 245 237 230 230 233 231 228 224 220 225 230 229 228 230 230 226 224 228 232 237 242 244 245 246 248 251 254 255 256 256 256 256 256 256 256 257 257 257 257 257 257 257 257 258 258 259 259 259 260
272 271 271 270 270 269 268 267 266 266 268 270 270 269 270 273 275 275 271 264 257 250 247 245 245 244 236 227 225 226 226 227 225 218 222 230 230 227 228 230 231 228 228 231 236 240 242 244 246 249 252 254 255 255 255 255 255 254 253 254 254 255 255 255 255 255 255 256 256 257 257 258 257 257
270 269 268 266 265 264 264 265 263 262 263 265 266 268 268 267 268 270 269 267 264 258 249 242 241 241 233 223 218 216 218 223 222 212 217 230 233 232 233 235 235 233 229 230 234 235 236 241 245 247 251 253 252 252 253 254 253 253 253 252 253 253 253 253 253 253 253 254 255 256 256 256 256 257
268 266 264 264 262 260 260 261 260 258 258 259 259 262 263 261 261 264 263 262 262 263 256 244 236 235 231 222 214 213 216 220 219 210 215 227 230 230 234 236 234 231 228 231 237 236 233 237 243 246 249 250 249 248 249 249 249 251 252 252 251 251 250 251 251 251 253 253 254 255 255 255 256 256
267 265 262 261 261 258 256 258 257 254 253 255 257 258 258 257 256 255 255 256 258 260 261 250 235 229 229 220 211 212 214 215 215 212 216 224 224 222 227 232 229 224 220 225 238 241 236 236 242 246 247 247 246 246 246 245 244 247 248 247 248 248 248 249 251 251 252 253 254 254 254 254 255 256
264 264 263 260 258 255 253 253 253 252 251 253 255 257 258 256 254 252 249 249 251 254 259 255 240 229 225 217 210 210 210 210 213 215 217 220 220 220 222 224 227 222 213 220 239 245 239 236 241 245 245 245 246 246 244 243 243 245 246 246 247 248 249 250 251 252 253 253 254 254 254 254 255 256
262 261 261 261 258 255 252 251 249 248 250 252 253 255 257 256 255 254 250 246 246 248 253 257 246 228 220 217 211 208 208 209 209 210 214 217 217 220 222 223 228 224 210 216 236 245 240 238 241 245 246 245 245 244 244 245 246 245 245 246 247 248 250 251 252 253 254 254 254 254 255 255 255 255
262 259 257 257 257 255 252 248 245 244 246 250 252 253 255 255 253 253 251 247 245 246 249 252 247 235 225 220 216 216 219 218 212 206 209 211 212 217 222 225 228 225 217 221 236 247 245 243 246 248 248 245 242 242 244 245 245 243 241 243 246 248 250 252 254 255 256 256 256 256 256 255 255 256
268 266 258 253 253 253 251 247 245 243 242 243 247 249 252 254 254 252 249 244 242 244 247 250 247 238 227 222 225 230 229 224 219 217 215 212 210 213 220 227 228 227 224 224 233 250 252 246 246 248 246 244 243 243 244 242 237 235 237 242 246 250 252 254 257 258 259 259 259 258 258 256 255 256
275 274 266 259 254 248 247 247 247 247 243 241 245 248 249 252 254 255 254 249 244 244 246 248 245 235 226 228 234 235 231 225 221 218 216 212 208 211 222 230 230 229 225 220 224 243 253 246 245 248 245 245 247 245 240 235 230 229 236 245 249 253 256 258 259 261 261 261 261 259 258 256 255 255
276 275 269 267 262 252 247 246 248 251 249 245 247 250 251 252 251 251 253 252 249 246 244 242 236 227 225 232 234 228 225 224 217 208 204 202 202 208 221 227 226 225 223 217 217 230 244 243 242 246 247 248 248 243 232 224 223 228 236 243 249 254 258 259 259 260 261 261 261 259 257 254 253 255
273 271 266 263 259 252 249 249 250 252 251 247 248 250 250 250 250 248 248 251 252 249 245 236 226 221 223 227 226 218 213 214 212 207 203 195 196 206 215 217 220 222 222 216 210 217 234 239 236 241 248 250 244 234 223 216 219 230 237 244 252 257 258 258 256 260 264 264 262 261 259 256 255 258
274 272 264 258 254 248 247 250 252 254 251 245 245 248 247 246 247 247 248 250 249 246 244 233 219 216 218 218 216 212 208 206 206 208 208 199 195 206 210 208 213 220 221 215 208 207 220 227 226 231 242 245 231 219 213 214 223 234 238 245 254 253 252 253 255 260 265 264 262 262 262 260 259 260
276 273 263 256 253 249 249 251 254 255 252 245 241 243 243 243 245 245 245 246 242 237 237 228 211 203 205 206 204 204 208 208 204 207 212 205 198 204 207 203 209 220 223 212 205 202 209 215 214 220 236 247 230 203 206 216 229 242 246 256 264 255 251 254 257 261 262 260 261 262 262 260 258 257
289 280 265 255 251 252 256 258 258 255 252 249 244 240 240 241 243 243 243 243 236 228 227 221 207 195 193 198 199 197 203 207 202 203 209 207 202 206 206 202 206 215 226 213 199 194 198 207 207 210 230 245 250 215 203 213 226 243 260 283 293 286 278 272 269 269 268 266 264 263 261 259 256 255
304 288 276 268 259 257 262 265 264 259 254 253 248 241 240 241 239 240 241 237 227 220 217 210 196 185 185 190 194 195 199 203 200 202 206 208 211 211 207 204 204 206 219 208 193 191 197 203 202 207 220 228 233 229 211 204 210 230 270 292 291 294 296 288 281 276 274 274 271 267 264 261 259 259
306 297 290 281 269 266 268 269 267 262 255 253 250 245 243 241 240 240 237 224 206 202 203 193 175 167 174 179 186 193 198 197 198 203 205 207 213 213 208 208 206 205 210 193 186 189 202 203 194 207 229 227 225 222 210 199 201 247 322 301 279 276 283 283 281 277 275 278 278 276 274 267 262 263
306 302 296 289 283 281 281 276 268 261 257 254 252 249 247 248 247 241 227 198 174 174 183 184 179 174 173 174 182 192 198 197 198 203 204 204 208 211 210 212 211 206 193 181 183 189 203 208 199 206 226 236 238 227 215 208 258 334 331 310 284 270 289 293 290 285 290 296 298 296 295 295 294 294
303 301 299 300 301 300 296 282 266 263 263 259 259 260 256 251 241 220 190 163 158 168 177 184 189 189 191 192 191 194 198 194 188 192 198 201 205 207 210 217 217 210 193 179 186 194 199 208 215 213 220 233 242 243 256 288 297 313 325 315 301 295 318 335 335 322 325 335 346 351 348 346 347 341
306 304 304 306 306 305 305 289 270 272 271 270 275 272 251 212 178 165 159 157 165 172 178 186 193 196 199 203 200 196 192 181 175 181 189 193 197 201 203 206 210 211 210 208 205 201 202 209 218 219 224 230 234 245 268 295 301 303 305 305 303 305 337 358 358 348 346 346 351 3 6 10 19 18
308 302 304 309 306 299 296 287 281 280 277 283 294 279 156 147 147 154 160 165 172 177 180 186 191 195 199 202 203 197 187 176 175 180 184 183 181 184 188 187 188 201 212 218 217 208 205 211 218 224 231 230 230 244 256 270 291 299 296 300 308 318 342 354 350 339 343 345 348 3 11 16 23 25
316 311 308 303 296 297 296 288 289 287 285 308 341 93 141 146 148 151 155 160 168 173 174 174 177 182 187 195 199 195 190 185 180 177 177 177 171 167 174 183 186 186 190 200 208 209 211 215 222 229 233 229 227 239 259 269 274 283 295 309 318 318 330 340 332 334 15 11 3 19 21 15 16 16
336 347 344 325 304 302 291 289 308 318 332 1 19 96 144 149 149 153 159 164 165 167 168 169 171 176 184 192 194 190 188 187 179 174 176 175 166 165 175 186 189 186 181 184 194 204 214 223 231 238 237 228 223 224 240 267 269 264 280 308 315 311 328 339 331 24 60 26 21 47 39 27 29 27
357 4 6 4 0 348 334 342 353 356 7 16 23 86 140 151 154 158 162 164 164 165 169 172 175 182 189 190 189 185 181 179 171 171 177 176 167 168 180 188 191 192 194 195 194 195 208 219 226 234 235 228 227 232 235 240 252 265 267 277 290 295 320 11 14 59 58 4 25 68 60 39 36 36
10 10 9 7 4 0 0 3 0 355 1 14 28 83 139 153 157 157 158 161 162 164 169 172 176 186 191 189 188 185 178 171 166 165 170 173 171 173 181 190 194 195 198 201 195 185 195 204 199 200 214 220 231 247 237 227 232 256 280 255 265 288 320 29 48 43 43 29 37 60 62 46 35 35
14 11 9 8 5 3 3 1 357 358 2 5 11 34 129 166 171 168 165 164 164 167 175 177 177 186 192 190 187 183 174 166 163 162 162 166 171 177 186 194 199 199 201 204 195 178 184 191 184 183 193 197 211 232 215 212 224 233 232 242 254 267 302 346 109 88 75 66 46 37 47 50 38 33
10 7 8 6 3 1 360 355 352 355 359 360 3 9 15 154 180 175 172 175 177 178 181 181 180 186 190 188 185 181 173 166 166 168 166 165 171 180 190 196 201 204 204 203 192 178 180 184 185 190 194 190 204 196 148 168 213 213 204 221 260 263 289 303 134 111 91 83 66 42 44 61 56 48
8 5 4 1 358 356 355 353 352 352 354 355 357 357 356 355 32 171 174 182 186 183 181 181 180 180 181 182 181 176 171 169 171 174 174 173 177 186 193 196 202 206 203 194 185 183 186 187 188 193 196 193 199 189 151 141 189 196 194 202 221 249 296 352 112 108 83 78 94 72 58 79 85 71
8 5 1 357 355 351 348 348 350 349 348 350 351 348 342 340 339 193 185 192 193 186 181 180 177 174 173 175 175 173 172 175 178 180 184 187 188 191 196 199 204 205 195 184 182 183 186 189 189 191 198 206 206 178 159 152 160 178 188 190 183 187 307 18 87 94 52 34 18 161 136 134 121 86
2 2 1 357 354 351 349 347 346 344 342 345 350 350 344 337 334 320 226 202 191 183 182 181 176 172 169 170 171 171 173 179 185 190 194 195 193 193 198 204 207 201 186 176 175 177 182 188 190 190 196 205 178 138 134 130 134 156 179 183 172 161 150 54 73 66 20 0 339 297 154 163 185 35
358 358 358 356 354 353 351 348 346 345 342 342 349 355 355 348 335 320 287 218 190 185 184 178 171 170 168 169 174 175 174 177 181 186 189 190 189 192 198 203 203 194 180 168 170 178 184 189 190 189 190 180 147 135 133 129 131 144 165 178 169 156 140 101 80 65 17 349 339 337 36 129 102 40
356 354 352 353 353 353 353 351 348 346 343 341 348 356 358 353 340 328 305 224 189 183 179 170 166 166 168 170 174 176 174 171 169 169 172 174 176 181 189 194 191 183 176 171 174 179 180 180 180 184 185 172 157 158 157 147 141 138 146 169 167 151 136 120 97 79 44 11 359 351 338 326 2 49
354 352 351 351 350 350 352 352 351 349 346 343 346 352 354 353 352 350 339 252 192 177 166 163 161 162 164 168 169 168 164 161 156 154 158 165 169 173 180 182 177 173 172 169 164 162 161 162 167 173 176 171 173 178 162 135 131 135 144 158 155 141 134 127 97 71 50 23 8 3 358 358 26 69
352 350 350 350 350 350 350 349 350 351 349 345 346 349 350 349 354 359 1 0 120 165 160 155 154 156 156 155 155 154 151 149 148 148 151 157 162 166 169 165 159 160 162 154 142 142 151 158 163 168 173 174 176 172 154 139 136 139 146 150 145 139 142 146 116 66 45 35 40 56 70 78 85 89
349 349 347 348 349 351 351 351 352 353 352 349 348 350 351 350 351 358 8 16 23 54 139 148 146 144 144 143 142 141 139 138 139 140 140 144 148 150 149 147 145 149 155 151 143 142 149 154 158 164 167 165 165 162 153 144 139 137 142 149 141 139 150 159 140 96 68 67 80 92 93 88 88 89
Height
787 785 783 781 779 777 776 774 772 770 768 766 763 761 759 756 752 748 744 739 737 738 739 738 736 737 738 739 740 741 742 743 744 745 745 745 746 747 748 749 751 753 754 755 756 757 759 760 761 761 762 762 763 763 763 764 764 764 764 764 764 764 763 763 763 763 762 762 762 762 761 762 762 762
783 781 779 777 775 773 772 770 768 767 765 762 760 758 756 754 750 746 741 736 734 735 735 734 734 733 734 735 735 736 737 738 740 741 741 742 742 743 744 745 747 749 750 751 752 754 755 756 757 758 758 759 759 759 759 760 760 760 760 760 760 760 760 759 759 759 759 758 758 758 758 758 758 759
779 777 775 773 771 769 768 766 764 763 761 759 757 754 752 750 746 744 740 733 731 732 732 730 731 731 731 732 731 731 733 734 735 736 738 738 739 740 741 741 743 745 746 747 749 750 751 752 753 754 755 755 755 755 756 756 756 756 756 756 756 756 755 755 755 755 754 754 754 754 754 755 755 755
776 774 771 769 768 766 764 762 761 759 757 756 754 751 748 746 743 741 738 731 727 728 729 728 728 728 729 729 729 728 728 729 731 732 734 735 736 737 737 738 739 740 742 744 745 746 747 749 750 750 751 751 751 751 751 751 751 751 751 751 751 751 751 751 750 750 750 750 750 750 750 751 751 751
773 771 768 766 765 764 762 759 757 755 754 752 750 748 745 742 739 738 734 729 724 724 726 725 724 725 726 725 726 726 724 725 727 728 730 731 732 733 734 735 735 736 738 740 741 742 744 745 746 747 747 747 747 747 747 747 747 747 747 747 746 746 746 746 746 746 746 745 745 746 746 747 747 747
770 768 765 762 761 760 758 755 753 751 750 748 746 744 741 738 736 734 731 727 723 720 721 721 720 721 722 721 722 723 720 721 723 724 726 727 729 730 730 731 732 732 733 735 737 738 740 741 742 742 743 743 743 743 742 742 742 742 742 742 742 742 742 742 742 741 741 741 741 741 742 742 743 743
767 765 761 758 757 756 754 751 749 747 745 743 741 739 737 735 732 730 728 725 721 718 717 717 716 716 718 717 718 720 718 717 719 720 722 723 725 726 727 728 728 729 730 731 733 734 736 737 738 738 738 738 738 738 738 738 737 737 738 738 738 738 737 737 737 737 737 737 737 737 738 738 739 740
763 761 758 755 753 752 750 747 745 743 741 739 737 734 732 730 728 726 724 721 719 716 713 712 711 711 713 713 714 716 715 713 714 716 718 719 721 722 723 724 725 726 726 727 729 731 732 733 734 734 734 734 734 734 734 733 733 733 733 733 733 733 733 733 733 733 733 733 733 733 734 734 735 735
759 757 754 751 750 748 746 743 741 739 737 736 733 729 727 725 723 721 719 717 715 713 710 709 708 707 708 709 710 711 711 710 710 712 714 716 717 718 720 720 721 722 723 724 725 727 728 729 729 729 729 729 729 729 729 729 729 729 729 729 729 729 729 729 728 728 728 729 729 729 729 730 730 731
754 752 750 747 746 744 742 739 737 735 734 732 730 726 723 721 719 716 713 712 710 708 706 706 706 704 703 704 705 706 707 706 706 707 710 712 713 714 715 717 717 718 719 720 721 722 723 724 725 725 725 725 725 725 725 725 725 725 725 725 725 724 724 724 724 724 724 724 724 724 725 725 726 727
749 747 745 743 741 739 737 735 733 731 730 728 726 724 721 718 716 712 709 707 705 703 702 702 701 700 699 699 700 702 703 703 703 703 705 707 708 710 711 712 713 714 714 715 717 718 719 720 720 721 721 721 720 720 720 720 720 720 720 720 720 720 720 720 720 720 720 720 720 721 721 721 722 723
744 741 739 737 735 733 731 729 728 727 726 724 721 720 719 717 714 710 707 704 700 698 697 696 697 697 695 693 695 698 699 699 698 698 701 703 704 705 706 707 709 710 711 712 713 714 715 715 716 716 716 715 715 715 715 715 715 715 715 715 715 715 715 715 716 716 716 716 716 716 717 717 717 718
737 735 732 729 727 726 724 723 722 720 720 719 716 715 715 714 711 708 705 701 697 694 691 690 692 692 689 688 690 691 692 693 694 695 698 700 700 702 703 703 705 707 707 708 709 710 711 711 711 712 711 710 710 710 710 709 709 709 709 710 710 710 710 711 711 711 711 711 712 712 712 712 713 714
729 726 724 721 719 717 715 714 713 712 712 712 710 708 708 708 707 705 702 698 694 691 687 685 685 686 684 683 684 685 687 690 692 693 694 696 698 699 699 699 701 703 704 705 705 706 707 707 707 707 706 706 706 705 704 704 704 704 704 704 705 705 705 706 706 706 707 707 707 707 707 708 709 710
720 718 715 712 710 708 706 705 703 702 702 702 702 701 700 700 700 699 697 693 690 688 684 680 679 679 678 678 680 682 684 687 689 689 690 692 694 696 696 696 697 699 701 702 702 702 703 704 703 702 702 702 702 701 700 700 700 700 700 700 700 701 701 702 702 702 702 702 703 703 703 704 705 705
713 710 706 704 701 699 697 695 694 693 693 693 693 692 691 691 690 690 689 687 685 684 680 676 674 673 674 675 676 678 680 683 685 685 686 688 690 691 692 692 694 696 698 699 699 698 699 700 699 699 698 698 697 696 696 696 696 696 696 696 696 697 697 698 698 698 698 699 699 699 699 700 701 701
706 703 699 696 693 690 688 687 686 685 684 684 684 683 683 682 681 680 679 678 678 678 676 673 669 668 669 671 672 674 677 680 681 681 682 684 686 687 688 689 691 694 695 696 697 696 696 697 696 695 695 694 693 692 692 691 691 691 692 692 693 693 694 694 694 694 694 695 695 695 696 696 697 697
699 695 692 688 684 682 680 679 677 677 676 676 676 675 675 673 672 671 669 669 670 671 670 668 665 664 666 667 668 671 674 675 676 677 678 681 682 683 685 686 689 691 692 694 695 693 692 694 693 691 691 690 689 689 688 688 688 688 689 689 689 690 690 690 690 690 691 691 691 691 692 692 693 694
691 687 683 679 675 673 671 670 670 669 668 668 668 667 667 666 664 663 661 660 661 662 662 661 661 661 662 663 665 667 669 670 672 674 675 678 680 682 684 685 687 688 690 692 693 691 689 691 690 687 687 687 686 685 685 684 684 685 686 686 686 687 687 687 687 687 687 687 687 688 688 689 689 689
682 678 674 669 666 663 662 661 662 661 660 661 660 660 659 659 657 655 654 653 653 654 654 655 655 656 657 659 661 663 664 666 669 672 674 676 679 681 682 683 684 685 686 688 689 688 687 687 687 685 684 684 683 682 681 681 681 682 683 683 684 684 684 684 684 684 684 684 684 684 685 685 686 685
672 667 662 659 656 654 653 653 653 652 652 653 653 653 652 652 650 648 648 647 646 646 647 647 648 650 652 654 656 659 660 662 665 669 671 673 676 678 678 678 679 681 682 684 686 686 685 685 684 683 682 681 680 679 679 679 679 680 680 680 680 680 680 680 681 681 681 681 681 681 682 682 682 682
663 657 652 649 647 645 644 644 644 643 644 646 646 646 646 645 643 642 642 641 640 639 639 640 641 643 647 649 652 655 657 659 661 663 666 669 671 673 674 675 676 678 679 679 681 683 682 682 682 681 680 679 678 677 677 677 677 677 678 677 677 677 677 677 678 677 678 678 678 678 678 678 678 678
653 648 643 641 639 638 636 636 635 635 637 639 639 640 640 638 637 636 636 636 634 633 633 635 636 639 642 646 649 652 654 656 657 659 662 666 668 669 671 672 673 675 674 674 676 678 679 679 680 679 678 675 673 674 675 675 675 675 675 675 674 674 674 675 675 675 675 675 676 676 676 676 676 676
644 640 637 634 633 632 630 628 628 628 630 631 633 634 633 632 631 631 631 630 628 629 630 632 634 636 639 643 646 648 651 653 655 657 660 663 664 666 668 669 670 671 670 670 672 675 676 677 677 677 676 673 671 671 672 673 673 673 673 672 672 672 672 672 673 673 673 673 673 673 673 673 674 673
639 636 634 631 628 627 624 622 622 623 623 625 626 627 627 626 625 625 625 625 625 626 628 630 632 634 637 640 642 645 647 650 651 653 656 659 661 663 665 666 667 668 668 667 669 672 674 674 675 675 675 673 671 671 671 671 672 672 671 671 671 671 671 671 671 672 672 671 671 671 670 670 671 671
637 633 630 627 624 623 620 618 618 618 618 619 620 621 620 619 619 620 621 622 623 624 626 627 629 631 633 636 639 641 644 647 649 650 653 655 658 661 663 664 665 666 666 666 667 670 672 672 673 673 673 673 671 671 670 670 670 670 670 670 670 670 670 670 671 671 670 670 669 669 668 668 668 668
635 631 627 624 621 619 617 614 614 614 614 614 614 614 613 612 613 615 617 618 619 621 623 625 627 629 631 633 636 639 642 644 646 647 650 653 656 658 660 662 664 665 665 665 666 669 670 671 672 672 673 672 671 670 669 669 669 669 669 669 669 669 670 670 670 670 669 668 668 667 666 666 665 664
633 628 624 621 618 616 613 611 610 610 610 609 609 608 607 607 609 610 612 614 616 618 621 623 625 627 629 632 634 636 639 641 643 645 648 651 653 656 658 660 662 664 664 664 666 668 670 670 671 672 672 672 671 670 669 668 669 669 669 669 669 669 670 669 669 669 668 667 666 665 665 664 663 661
631 626 621 617 615 612 610 608 607 607 606 605 604 602 601 600 602 604 607 610 613 616 619 621 623 626 628 630 632 634 637 639 640 643 646 649 652 654 656 658 660 662 664 664 666 667 669 670 671 671 672 672 671 670 669 669 669 669 669 669 669 669 669 668 668 667 667 666 665 664 663 662 661 660
628 623 618 615 613 610 608 607 606 605 604 602 599 595 593 593 596 599 604 608 611 614 617 620 622 624 627 629 631 634 636 637 639 641 644 647 650 653 655 657 659 661 662 664 665 667 668 669 670 670 671 671 670 670 669 669 669 669 669 669 669 668 668 667 667 666 666 665 665 664 662 661 660 659
625 620 615 612 611 609 607 606 605 604 602 599 595 591 590 593 596 600 603 607 610 613 616 618 621 624 626 629 631 632 634 635 637 640 642 645 648 651 653 656 658 660 662 663 665 666 667 668 669 669 670 670 669 669 669 669 669 669 669 669 669 668 668 667 666 666 665 665 664 663 662 661 660 659
623 617 613 610 609 608 607 606 605 602 600 598 595 593 593 595 598 601 605 608 610 613 615 618 621 623 625 628 629 630 632 634 636 638 641 644 647 649 652 654 656 658 660 662 663 664 665 667 668 668 668 669 668 668 668 668 669 669 669 669 668 668 668 667 666 666 665 665 664 663 662 662 660 660
623 617 612 610 608 607 607 606 604 602 600 598 597 596 596 598 600 603 605 608 611 613 616 618 620 622 624 626 627 628 630 633 634 636 639 642 645 648 651 653 654 656 658 660 662 663 664 665 666 667 667 667 667 668 668 668 669 669 669 669 668 668 668 667 666 666 665 665 664 663 663 662 661 660
625 619 616 613 611 609 606 605 604 602 601 600 599 598 599 600 602 604 606 609 611 613 615 617 619 621 622 624 625 626 628 631 633 635 638 640 643 646 649 651 653 654 656 658 660 661 662 664 665 666 666 666 667 667 667 668 668 668 668 668 668 667 667 667 667 666 666 665 664 664 663 663 662 661
628 624 622 620 617 614 611 609 607 604 603 602 601 600 601 602 604 606 607 609 611 612 614 616 618 619 621 622 623 624 626 629 632 634 636 639 641 644 647 649 651 653 654 656 657 659 660 662 664 665 666 666 666 666 666 666 667 668 668 668 667 667 667 667 667 667 666 666 665 664 664 663 663 662
633 630 628 626 623 620 617 614 612 608 606 604 603 602 602 603 605 607 608 609 611 612 614 615 617 619 620 621 622 623 625 628 631 633 635 638 640 643 646 648 650 651 653 654 655 657 659 661 662 663 664 665 664 663 663 665 666 667 667 668 667 667 667 667 667 667 666 666 666 665 665 665 664 664
638 636 634 631 628 626 623 620 617 614 611 609 607 606 605 605 606 607 608 609 610 612 613 614 616 617 619 620 621 623 624 627 630 632 634 637 639 642 644 646 648 650 651 652 654 655 657 659 661 661 662 662 662 660 661 664 665 665 666 667 667 667 667 667 667 667 667 667 667 666 666 666 665 665
644 642 639 637 634 632 629 626 623 620 617 614 612 610 609 607 607 607 608 609 610 611 613 614 615 616 618 619 620 622 623 626 629 632 634 636 638 640 642 644 646 648 649 651 653 654 656 657 659 659 660 660 658 658 660 663 665 665 665 666 666 667 667 667 666 667 667 667 667 667 667 667 666 666
651 648 646 643 640 637 634 631 629 625 622 619 617 614 612 610 609 608 608 609 610 611 612 613 614 615 617 618 620 621 623 625 628 630 633 635 637 639 641 643 645 646 648 650 651 653 654 656 657 658 659 658 657 657 658 661 663 664 665 666 666 667 667 667 667 667 667 668 668 667 667 667 666 666
656 654 651 648 645 642 639 636 633 630 627 623 620 617 615 612 610 609 609 609 609 610 611 612 613 615 616 617 619 620 622 625 627 629 631 634 635 637 640 642 643 644 646 648 650 651 652 654 655 656 658 658 657 658 659 661 662 664 665 666 666 667 668 667 668 668 668 668 668 667 667 666 666 666
659 657 654 651 648 645 642 639 636 632 629 626 622 619 616 614 612 610 609 608 609 610 611 612 613 614 615 617 618 620 621 623 626 628 630 632 634 636 639 641 642 642 644 646 648 649 651 653 654 656 657 658 658 659 659 661 662 664 665 666 666 667 668 668 668 668 668 668 668 666 666 666 665 665
663 660 657 654 651 648 645 642 638 635 632 628 625 622 618 615 613 611 609 608 609 609 610 611 612 614 615 617 618 619 620 622 624 626 628 630 632 635 637 639 639 640 642 644 646 648 650 652 654 655 657 658 658 659 659 660 662 664 665 666 667 668 668 669 669 669 669 669 668 667 666 665 665 665
667 664 660 657 654 651 648 645 641 638 635 631 628 625 621 617 615 612 609 608 609 609 610 611 612 614 615 616 617 619 620 621 623 625 627 629 631 634 636 637 638 640 641 643 645 647 649 651 653 655 657 658 658 658 659 660 662 664 665 666 667 668 669 669 670 670 670 669 668 668 667 666 665 665
670 667 663 660 657 654 651 648 644 641 638 634 631 627 624 621 618 614 611 609 609 609 610 611 612 614 615 616 617 619 620 622 623 625 627 629 631 633 635 636 638 640 641 643 645 647 649 651 653 655 656 657 657 658 659 660 662 664 665 666 667 668 669 670 670 670 670 670 669 668 668 667 667 666
672 669 666 663 660 657 654 651 647 644 640 637 633 630 627 624 621 617 614 611 610 610 611 612 613 614 615 616 618 619 621 623 624 626 628 630 631 633 635 636 638 640 641 643 645 647 649 651 653 654 656 657 657 658 659 661 662 664 665 666 667 668 669 670 671 671 671 671 671 670 669 669 668 668